[[{"header":{"parameterUnit":"m.s-1","parameterCategory":1,"la1":30.2991,"la2":30.254,"lo1":-89.0895,"lo2":-89.0444,"dy":0.0017,"dx":0.0017,"nx":28,"ny":28,"refTime":"2026-02-06T09:00:00:Z","depth":0,"parameterNumber":2,"parameterNumberName":"U-component_of_WINDS"},"data":[0,0,0,0,0,0,0,0,0,0,0,0,0,0,0,0,0,0,0,0,0,0,0,0,0,0,0,0,0,0,0,0,0,0,0,0,0,0,0,0,0,0,0,0,0,0,0,0,0,0,0,0,0,0,0,0,0,0,2.4516,2.4517,0,2.4566,2.4567,2.4568,2.4516,2.4514,2.4512,2.451,2.4566,2.457,2.4573,0,0,0,0,0,0,0,0,0,0,0,0,0,2.4381,2.4384,2.4516,2.4517,2.4517,2.4566,2.4567,2.4568,2.4517,2.4514,2.4512,2.451,2.4565,2.4569,2.4573,0,0,0,0,0,0,0,0,0,0,0,0,0,2.4437,2.4385,2.4516,2.4498,2.4497,2.4566,2.4567,2.4568,2.4517,2.4514,2.4511,2.4508,2.4564,2.4569,2.4574,2.4665,0,0,2.4589,2.4591,0,0,0,0,0,0,0,0,2.4434,2.4442,2.45,2.4499,2.4498,2.4532,2.454,2.4601,2.4518,2.451,2.451,2.4507,2.4558,2.4563,2.4579,2.4668,2.467,2.459,2.4593,2.4595,2.4596,0,0,0,0,0,0,0,2.443,2.4439,2.4536,2.4501,2.45,2.4489,2.4493,2.4551,2.455,2.451,2.4506,2.4513,2.4557,2.4574,2.458,2.4671,2.4589,2.4594,2.4597,2.4599,2.4841,2.4844,0,0,0,0,0,0,2.4427,2.4436,2.4535,2.4538,2.4458,2.4494,2.4499,2.4524,2.4549,2.455,2.4515,2.451,2.4567,2.4574,2.4582,2.4693,2.4595,2.4599,2.4602,2.4837,2.4842,2.4845,0,0,0,0,0,0,2.4425,2.4437,2.4532,2.4486,2.4497,2.4499,2.4528,2.4527,2.4544,2.4553,2.4553,2.4534,2.4565,2.4575,2.4645,2.4694,2.4602,2.4606,2.4833,2.4839,2.4843,2.4914,0,0,0,0,0,0,2.4421,2.4436,2.4469,2.4487,2.45,2.4594,2.4531,2.453,2.4553,2.4547,2.457,2.4571,2.4564,2.4638,2.465,2.4699,2.461,2.4829,2.4836,2.4842,2.4908,2.4921,2.4933,0,0,0,0,0,2.4416,2.4487,2.4471,2.4483,2.4542,2.4596,2.4604,2.4592,2.4557,2.4592,2.4598,2.4571,2.4686,2.4646,2.4659,2.471,2.4826,2.4834,2.4841,2.4902,2.4918,2.4932,0,0,0,0,0,0,2.4476,2.4489,2.4471,2.455,2.4573,2.4588,2.4631,2.461,2.4644,2.4637,2.4622,2.4628,2.4703,2.4714,2.4668,2.4802,2.4751,2.4761,2.4792,2.4808,2.482,2.4817,2.4614,0,0,0,0,0,2.4498,2.454,2.455,2.4619,2.4631,2.4629,2.4652,2.4642,2.4665,2.4674,2.4685,2.471,2.4752,2.4781,2.482,2.4909,2.4915,2.4951,2.4963,2.4973,2.4983,2.5034,2.5051,2.487,2.487,2.487,0,0,2.4545,2.4557,2.4585,2.4631,2.4647,2.4693,2.4637,2.4687,2.4722,2.4682,2.475,2.4759,2.4786,2.4867,2.4903,2.4878,2.5035,2.4983,2.4991,2.4996,2.5044,2.5061,2.5076,2.4876,2.4875,2.4874,0,0,2.4653,2.4666,2.4726,2.4743,2.4768,2.4766,2.4781,2.48,2.4804,2.4871,2.4843,2.4885,2.4957,2.4979,2.4999,2.5118,2.5095,2.5131,2.5197,2.5247,2.5261,2.5274,2.5319,2.5335,2.5141,2.5141,2.5141,0,2.4709,2.4775,2.4759,2.4812,2.4834,2.48,2.4862,2.488,2.4917,2.4934,2.4905,2.4996,2.5012,2.5099,2.5128,2.5145,2.5163,2.5129,2.526,2.5272,2.5284,2.5327,2.5343,2.5145,2.5145,2.5144,2.5144,0,2.4843,2.4889,2.4935,2.4971,2.4998,2.5055,2.5051,2.5081,2.5068,2.5071,2.5141,2.5159,2.5202,2.5222,2.521,2.5308,2.5292,2.5262,2.521,2.5306,2.5346,2.5362,2.5151,2.515,2.5148,2.5147,0,0,2.499,2.5017,2.5035,2.5052,2.5077,2.5114,2.5171,2.5212,2.5239,2.5266,2.5315,2.5378,2.5351,2.5374,2.5365,2.5408,2.5505,2.5373,2.5374,2.5399,2.5617,2.5641,2.566,2.5489,2.5492,2.5495,2.5615,0,2.5101,2.5197,2.5186,2.528,2.5324,2.5293,2.5343,2.5365,2.537,2.541,2.5415,2.5461,2.542,2.5435,2.5476,2.5484,2.5549,2.5475,2.5538,2.554,2.5533,2.568,2.5705,2.5818,2.5631,2.5633,2.5635,0,2.5243,2.5274,2.5372,2.5393,2.5411,2.5456,2.5495,2.5532,2.5558,2.5559,2.5586,2.5569,2.5629,2.5576,2.5659,2.561,2.5635,2.5643,2.5647,2.5654,2.5594,2.5693,2.5853,2.5871,2.5659,2.5657,2.5656,0,2.5343,2.541,2.5478,2.5493,2.5519,2.5552,2.5564,2.5587,2.5613,2.5648,2.5665,2.5706,2.5729,2.5763,2.5759,2.572,2.5845,2.5791,2.585,2.585,2.5878,2.5877,2.6047,2.5892,2.5891,2.5891,2.5891,0,2.5469,2.5531,2.5524,2.5566,2.5635,2.5622,2.5692,2.5701,2.5722,2.5767,2.5742,2.5785,2.5777,2.5821,2.5818,2.589,2.59,2.5904,2.5903,2.5907,2.5907,2.5924,2.5917,2.5895,2.5894,2.5894,2.5893,0,2.5593,2.5591,2.5663,2.5681,2.5688,2.5738,2.5755,2.5796,2.5799,2.5856,2.5869,2.5874,2.5925,2.5924,2.5982,2.598,2.6069,2.6057,2.606,2.6058,2.6118,2.6113,2.6306,2.6332,2.6158,2.616,2.6161,0,2.5674,2.5721,2.5745,2.5772,2.5787,2.5832,2.5859,2.5849,2.5879,2.5913,2.5951,2.5999,2.6037,2.6119,2.613,2.6175,2.6166,2.6231,2.6172,2.6176,2.617,2.6168,2.6174,2.6243,2.6244,2.6246,2.6247,0,2.5819,2.5816,2.5855,2.5895,2.5927,2.5958,2.5987,2.6011,2.6005,2.604,2.6091,2.612,2.618,2.6229,2.6272,2.6287,2.6268,2.6265,2.6282,2.6288,2.6288,2.6291,2.6093,2.6261,2.626,2.6259,2.6258,2.6258,2.5926,2.5967,2.5991,2.6036,2.6056,2.6084,2.6124,2.6131,2.6173,2.622,2.6212,2.627,2.6298,2.6354,2.6373,2.642,2.6397,2.642,2.6427,2.6433,2.6441,2.6279,2.6427,2.6427,2.6427,2.6426,2.6426,0,2.6072,2.6086,2.6127,2.6168,2.6204,2.618,2.6211,2.6244,2.6294,2.6321,2.6359,2.6419,2.6467,2.6482,2.6529,2.6564,2.6556,2.6577,2.6575,2.658,2.6457,2.6439,2.6582,2.6582,2.6582,2.6582,2.6582,2.6582,2.6152,2.6221,2.6221,2.6301,2.6315,2.6371,2.6391,2.6417,2.6438,2.6506,2.6546,2.6554,2.6577,2.6626,2.667,2.6674,2.6693,2.6718,2.6718,2.6604,2.6588,2.6573,2.6556,2.6722,2.6722,2.6837,2.6838,2.6839]},{"header":{"parameterUnit":"m.s-1","parameterCategory":1,"la1":30.2991,"la2":30.254,"lo1":-89.0895,"lo2":-89.0444,"dy":0.0017,"dx":0.0017,"nx":28,"ny":28,"refTime":"2026-02-06T09:00:00:Z","depth":0,"parameterNumber":3,"parameterNumberName":"V-component_of_WINDS"},"data":[0,0,0,0,0,0,0,0,0,0,0,0,0,0,0,0,0,0,0,0,0,0,0,0,0,0,0,0,0,0,0,0,0,0,0,0,0,0,0,0,0,0,0,0,0,0,0,0,0,0,0,0,0,0,0,0,0,0,-2.7263,-2.7263,0,-2.7278,-2.7278,-2.7279,-2.7296,-2.7296,-2.7296,-2.7297,-2.7311,-2.7311,-2.7312,0,0,0,0,0,0,0,0,0,0,0,0,0,-2.7249,-2.725,-2.7263,-2.7263,-2.7264,-2.7278,-2.7278,-2.7279,-2.7296,-2.7296,-2.7296,-2.7297,-2.7311,-2.7311,-2.7312,0,0,0,0,0,0,0,0,0,0,0,0,0,-2.7259,-2.725,-2.7263,-2.7274,-2.7275,-2.7278,-2.7278,-2.7279,-2.7296,-2.7296,-2.7297,-2.7297,-2.7311,-2.7311,-2.7312,-2.7305,0,0,-2.7312,-2.7312,0,0,0,0,0,0,0,0,-2.7258,-2.7259,-2.7272,-2.7273,-2.7274,-2.7286,-2.7279,-2.7287,-2.7296,-2.7288,-2.7297,-2.7297,-2.7302,-2.7303,-2.7305,-2.7306,-2.7306,-2.7312,-2.7312,-2.7312,-2.7313,0,0,0,0,0,0,0,-2.7258,-2.7259,-2.7269,-2.7272,-2.7274,-2.7278,-2.728,-2.7281,-2.7293,-2.7289,-2.729,-2.7291,-2.7303,-2.7305,-2.7306,-2.7306,-2.7312,-2.7312,-2.7313,-2.7313,-2.7303,-2.7303,0,0,0,0,0,0,-2.7256,-2.7258,-2.7269,-2.727,-2.7267,-2.7278,-2.728,-2.7282,-2.7293,-2.7295,-2.7291,-2.7292,-2.7304,-2.7305,-2.7306,-2.73,-2.7312,-2.7313,-2.7313,-2.7304,-2.7303,-2.7303,0,0,0,0,0,0,-2.7255,-2.7256,-2.7268,-2.7264,-2.7266,-2.7278,-2.7279,-2.7282,-2.7284,-2.7295,-2.7297,-2.7291,-2.7305,-2.7306,-2.7305,-2.7301,-2.7313,-2.7313,-2.7304,-2.7304,-2.7303,-2.7287,0,0,0,0,0,0,-2.7255,-2.7256,-2.7254,-2.7264,-2.7266,-2.7267,-2.7279,-2.7282,-2.7284,-2.7286,-2.7295,-2.7297,-2.7305,-2.7305,-2.7306,-2.7301,-2.7313,-2.7305,-2.7304,-2.7303,-2.7288,-2.7286,-2.7284,0,0,0,0,0,-2.7254,-2.7248,-2.7253,-2.7254,-2.7263,-2.7266,-2.7268,-2.7278,-2.7284,-2.7281,-2.7289,-2.7297,-2.7301,-2.7305,-2.7306,-2.7301,-2.7305,-2.7304,-2.7303,-2.7288,-2.7286,-2.7284,0,0,0,0,0,0,-2.7236,-2.7249,-2.7256,-2.7253,-2.7258,-2.7269,-2.7267,-2.7274,-2.7278,-2.728,-2.7291,-2.7293,-2.7292,-2.7296,-2.73,-2.7296,-2.7304,-2.7304,-2.7293,-2.729,-2.7289,-2.7287,-2.7313,0,0,0,0,0,-2.7232,-2.7233,-2.7245,-2.7241,-2.7244,-2.7255,-2.7256,-2.7264,-2.727,-2.7272,-2.728,-2.7285,-2.7288,-2.7289,-2.7293,-2.7289,-2.7291,-2.7286,-2.7284,-2.7282,-2.7281,-2.7281,-2.7278,-2.73,-2.73,-2.73,0,0,-2.7223,-2.723,-2.723,-2.7238,-2.7243,-2.7244,-2.7257,-2.7257,-2.7259,-2.7272,-2.7273,-2.7278,-2.7285,-2.7283,-2.7283,-2.7287,-2.7276,-2.7281,-2.728,-2.728,-2.7279,-2.7277,-2.7276,-2.7299,-2.73,-2.73,0,0,-2.7207,-2.7213,-2.7211,-2.7216,-2.7224,-2.7232,-2.7231,-2.7241,-2.7246,-2.7246,-2.7257,-2.7258,-2.7263,-2.7268,-2.7271,-2.7258,-2.7266,-2.7259,-2.7249,-2.7248,-2.7246,-2.7245,-2.724,-2.7239,-2.7258,-2.7258,-2.7258,0,-2.7195,-2.7197,-2.7209,-2.7209,-2.7212,-2.7225,-2.7224,-2.7228,-2.7236,-2.7238,-2.7243,-2.725,-2.7256,-2.7255,-2.7252,-2.7254,-2.7254,-2.7258,-2.7245,-2.7244,-2.7243,-2.7239,-2.7238,-2.7257,-2.7257,-2.7257,-2.7258,0,-2.7182,-2.7184,-2.7181,-2.719,-2.7193,-2.7192,-2.7203,-2.7205,-2.7212,-2.7219,-2.722,-2.7227,-2.7232,-2.7233,-2.724,-2.7234,-2.7236,-2.7243,-2.7252,-2.724,-2.7236,-2.7235,-2.7256,-2.7256,-2.7257,-2.7257,0,0,-2.7155,-2.717,-2.7169,-2.7173,-2.7184,-2.7185,-2.7185,-2.7191,-2.7192,-2.7198,-2.7199,-2.7203,-2.7209,-2.7213,-2.7221,-2.722,-2.721,-2.7227,-2.7227,-2.7224,-2.7204,-2.7199,-2.7197,-2.7215,-2.7215,-2.7215,-2.7204,0,-2.7141,-2.7142,-2.7153,-2.7151,-2.7153,-2.7166,-2.7166,-2.7173,-2.718,-2.7182,-2.719,-2.7193,-2.7201,-2.7204,-2.7203,-2.7211,-2.7206,-2.7212,-2.7216,-2.7216,-2.7214,-2.7196,-2.719,-2.7179,-2.7203,-2.7203,-2.7202,0,-2.7125,-2.713,-2.7129,-2.714,-2.7141,-2.7141,-2.7148,-2.715,-2.7158,-2.7163,-2.7168,-2.7177,-2.7178,-2.7186,-2.7188,-2.7192,-2.7195,-2.7199,-2.7199,-2.7199,-2.7208,-2.7196,-2.7176,-2.7174,-2.72,-2.7201,-2.7201,0,-2.7105,-2.7112,-2.7112,-2.7116,-2.7129,-2.7129,-2.7134,-2.7142,-2.7145,-2.7151,-2.7153,-2.7159,-2.7162,-2.7166,-2.7177,-2.7182,-2.7178,-2.7187,-2.7182,-2.7182,-2.7181,-2.7181,-2.7161,-2.7182,-2.7182,-2.7182,-2.7182,0,-2.7089,-2.7088,-2.7104,-2.7104,-2.7103,-2.7116,-2.7114,-2.7121,-2.7129,-2.713,-2.7142,-2.7144,-2.7157,-2.716,-2.7169,-2.7169,-2.7171,-2.7175,-2.7177,-2.7174,-2.7173,-2.7176,-2.7177,-2.7182,-2.7182,-2.7182,-2.7182,0,-2.7067,-2.7078,-2.7079,-2.7092,-2.7095,-2.7094,-2.7104,-2.7105,-2.7113,-2.7116,-2.7117,-2.7129,-2.7134,-2.7145,-2.7152,-2.7157,-2.7156,-2.716,-2.7153,-2.7155,-2.715,-2.715,-2.7131,-2.7129,-2.7151,-2.7151,-2.7151,0,-2.7056,-2.7055,-2.7068,-2.707,-2.7075,-2.7078,-2.7082,-2.7094,-2.7097,-2.7107,-2.7107,-2.7112,-2.7117,-2.7124,-2.7134,-2.7139,-2.7144,-2.7137,-2.7145,-2.7142,-2.7144,-2.7144,-2.7144,-2.7135,-2.7134,-2.7134,-2.7134,0,-2.7035,-2.704,-2.7045,-2.7051,-2.7055,-2.7061,-2.7067,-2.7069,-2.7083,-2.7086,-2.7091,-2.7095,-2.7102,-2.7108,-2.7115,-2.7121,-2.713,-2.7131,-2.7131,-2.7127,-2.7124,-2.7126,-2.7149,-2.7132,-2.7132,-2.7132,-2.7132,-2.7132,-2.7018,-2.7018,-2.7027,-2.7032,-2.7039,-2.7045,-2.7046,-2.7055,-2.7059,-2.7067,-2.7074,-2.7078,-2.7087,-2.7098,-2.7104,-2.7107,-2.7112,-2.7111,-2.7111,-2.711,-2.7109,-2.7123,-2.7109,-2.7109,-2.7109,-2.7109,-2.7109,0,-2.6997,-2.7004,-2.7009,-2.7018,-2.7022,-2.703,-2.7038,-2.7041,-2.7045,-2.7052,-2.7057,-2.7064,-2.7069,-2.708,-2.7087,-2.7088,-2.7092,-2.7089,-2.7089,-2.709,-2.7104,-2.7104,-2.7085,-2.7085,-2.7085,-2.7085,-2.7085,-2.7085,-2.6987,-2.6989,-2.6996,-2.7,-2.7008,-2.7012,-2.7016,-2.7022,-2.7028,-2.7034,-2.7039,-2.7047,-2.7056,-2.7063,-2.7069,-2.7072,-2.7074,-2.707,-2.7074,-2.7087,-2.7089,-2.7091,-2.7092,-2.707,-2.707,-2.706,-2.706,-2.706]}]]